Year,Month,Day,Hour,Minute,Value (Times are PST for temperature in C)
2018,08,03,00,00,17.50
2018,08,03,00,01,17.40
2018,08,03,00,02,17.40
2018,08,03,00,03,17.40
2018,08,03,00,04,17.40
2018,08,03,00,05,17.40
2018,08,03,00,06,17.40
2018,08,03,00,07,17.40
2018,08,03,00,08,17.50
2018,08,03,00,09,17.50
2018,08,03,00,10,17.40
2018,08,03,00,11,17.40
2018,08,03,00,12,17.40
2018,08,03,00,13,17.40
2018,08,03,00,14,17.40
2018,08,03,00,15,17.40
2018,08,03,00,16,17.40
2018,08,03,00,17,17.40
2018,08,03,00,18,17.40
2018,08,03,00,19,17.40
2018,08,03,00,20,17.40
2018,08,03,00,21,17.40
2018,08,03,00,22,17.40
2018,08,03,00,23,17.40
2018,08,03,00,24,17.40
2018,08,03,00,25,17.40
2018,08,03,00,26,17.40
2018,08,03,00,27,17.40
2018,08,03,00,28,17.40
2018,08,03,00,29,17.40
2018,08,03,00,30,17.40
2018,08,03,00,31,17.40
2018,08,03,00,32,17.40
2018,08,03,00,33,17.40
2018,08,03,00,34,17.40
2018,08,03,00,35,17.40
2018,08,03,00,36,17.40
2018,08,03,00,37,17.40
2018,08,03,00,38,17.40
2018,08,03,00,39,17.40
2018,08,03,00,40,17.40
2018,08,03,00,41,17.40
2018,08,03,00,42,17.40
2018,08,03,00,43,17.30
2018,08,03,00,44,17.30
2018,08,03,00,45,17.30
2018,08,03,00,46,17.30
2018,08,03,00,47,17.30
2018,08,03,00,48,17.30
2018,08,03,00,49,17.30
2018,08,03,00,50,17.20
2018,08,03,00,51,17.20
2018,08,03,00,52,17.20
2018,08,03,00,53,17.20
2018,08,03,00,54,17.20
2018,08,03,00,55,17.20
2018,08,03,00,56,17.20
2018,08,03,00,57,17.20
2018,08,03,00,58,17.20
2018,08,03,00,59,17.20
2018,08,03,01,00,17.10
2018,08,03,01,01,17.10
2018,08,03,01,02,17.10
2018,08,03,01,03,17.20
2018,08,03,01,04,17.20
2018,08,03,01,05,17.20
2018,08,03,01,06,17.20
2018,08,03,01,07,17.20
2018,08,03,01,08,17.20
2018,08,03,01,09,17.20
2018,08,03,01,10,17.20
2018,08,03,01,11,17.20
2018,08,03,01,12,17.20
2018,08,03,01,13,17.20
2018,08,03,01,14,17.20
2018,08,03,01,15,17.20
2018,08,03,01,16,17.20
2018,08,03,01,17,17.20
2018,08,03,01,18,17.20
2018,08,03,01,19,17.30
2018,08,03,01,20,17.30
2018,08,03,01,21,17.30
2018,08,03,01,22,17.30
2018,08,03,01,23,17.30
2018,08,03,01,24,17.30
2018,08,03,01,25,17.30
2018,08,03,01,26,17.30
2018,08,03,01,27,17.30
2018,08,03,01,28,17.30
2018,08,03,01,29,17.30
2018,08,03,01,30,17.30
2018,08,03,01,31,17.30
2018,08,03,01,32,17.30
2018,08,03,01,33,17.30
2018,08,03,01,34,17.30
2018,08,03,01,35,17.30
2018,08,03,01,36,17.30
2018,08,03,01,37,17.30
2018,08,03,01,38,17.30
2018,08,03,01,39,17.30
2018,08,03,01,40,17.30
2018,08,03,01,41,17.30
2018,08,03,01,42,17.30
2018,08,03,01,43,17.30
2018,08,03,01,44,17.30
2018,08,03,01,45,17.30
2018,08,03,01,46,17.30
2018,08,03,01,47,17.30
2018,08,03,01,48,17.30
2018,08,03,01,49,17.30
2018,08,03,01,50,17.30
2018,08,03,01,51,17.30
2018,08,03,01,52,17.30
2018,08,03,01,53,17.30
2018,08,03,01,54,17.30
2018,08,03,01,55,17.30
2018,08,03,01,56,17.30
2018,08,03,01,57,17.30
2018,08,03,01,58,17.30
2018,08,03,01,59,17.30
2018,08,03,02,00,17.30
2018,08,03,02,01,17.30
2018,08,03,02,02,17.30
2018,08,03,02,03,17.30
2018,08,03,02,04,17.30
2018,08,03,02,05,17.30
2018,08,03,02,06,17.30
2018,08,03,02,07,17.30
2018,08,03,02,08,17.40
2018,08,03,02,09,17.30
2018,08,03,02,10,17.40
2018,08,03,02,11,17.30
2018,08,03,02,12,17.40
2018,08,03,02,13,17.40
2018,08,03,02,14,17.40
2018,08,03,02,15,17.40
2018,08,03,02,16,17.40
2018,08,03,02,17,17.40
2018,08,03,02,18,17.40
2018,08,03,02,19,17.40
2018,08,03,02,20,17.40
2018,08,03,02,21,17.40
2018,08,03,02,22,17.40
2018,08,03,02,23,17.40
2018,08,03,02,24,17.40
2018,08,03,02,25,17.40
2018,08,03,02,26,17.40
2018,08,03,02,27,17.40
2018,08,03,02,28,17.40
2018,08,03,02,29,17.40
2018,08,03,02,30,17.40
2018,08,03,02,31,17.40
2018,08,03,02,32,17.40
2018,08,03,02,33,17.40
2018,08,03,02,34,17.40
2018,08,03,02,35,17.30
2018,08,03,02,36,17.30
2018,08,03,02,37,17.20
2018,08,03,02,38,17.10
2018,08,03,02,39,17.00
2018,08,03,02,40,17.00
2018,08,03,02,41,16.90
2018,08,03,02,42,16.90
2018,08,03,02,43,16.80
2018,08,03,02,44,16.80
2018,08,03,02,45,16.70
2018,08,03,02,46,16.70
2018,08,03,02,47,16.70
2018,08,03,02,48,16.60
2018,08,03,02,49,16.60
2018,08,03,02,50,16.60
2018,08,03,02,51,16.60
2018,08,03,02,52,16.70
2018,08,03,02,53,16.70
2018,08,03,02,54,16.70
2018,08,03,02,55,16.70
2018,08,03,02,56,16.70
2018,08,03,02,57,16.80
2018,08,03,02,58,16.80
2018,08,03,02,59,16.80
2018,08,03,03,00,16.80
2018,08,03,03,01,16.90
2018,08,03,03,02,16.90
2018,08,03,03,03,16.90
2018,08,03,03,04,16.90
2018,08,03,03,05,16.90
2018,08,03,03,06,16.90
2018,08,03,03,07,17.00
2018,08,03,03,08,17.00
2018,08,03,03,09,17.00
2018,08,03,03,10,17.00
2018,08,03,03,11,17.00
2018,08,03,03,12,17.00
2018,08,03,03,13,17.10
2018,08,03,03,14,17.10
2018,08,03,03,15,17.10
2018,08,03,03,16,17.10
2018,08,03,03,17,17.10
2018,08,03,03,18,17.10
2018,08,03,03,19,17.10
2018,08,03,03,20,17.10
2018,08,03,03,21,17.10
2018,08,03,03,22,17.10
2018,08,03,03,23,17.10
2018,08,03,03,24,17.10
2018,08,03,03,25,17.10
2018,08,03,03,26,17.10
2018,08,03,03,27,17.10
2018,08,03,03,28,17.10
2018,08,03,03,29,17.10
2018,08,03,03,30,17.10
2018,08,03,03,31,17.10
2018,08,03,03,32,17.10
2018,08,03,03,33,17.10
2018,08,03,03,34,17.10
2018,08,03,03,35,17.10
2018,08,03,03,36,17.10
2018,08,03,03,37,17.20
2018,08,03,03,38,17.20
2018,08,03,03,39,17.20
2018,08,03,03,40,17.20
2018,08,03,03,41,17.20
2018,08,03,03,42,17.20
2018,08,03,03,43,17.20
2018,08,03,03,44,17.20
2018,08,03,03,45,17.20
2018,08,03,03,46,17.20
2018,08,03,03,47,17.20
2018,08,03,03,48,17.30
2018,08,03,03,49,17.30
2018,08,03,03,50,17.30
2018,08,03,03,51,17.30
2018,08,03,03,52,17.30
2018,08,03,03,53,17.30
2018,08,03,03,54,17.30
2018,08,03,03,55,17.30
2018,08,03,03,56,17.30
2018,08,03,03,57,17.30
2018,08,03,03,58,17.30
2018,08,03,03,59,17.30
2018,08,03,04,00,17.30
2018,08,03,04,01,17.30
2018,08,03,04,02,17.30
2018,08,03,04,03,17.30
2018,08,03,04,04,17.30
2018,08,03,04,05,17.30
2018,08,03,04,06,17.30
2018,08,03,04,07,17.30
2018,08,03,04,08,17.30
2018,08,03,04,09,17.30
2018,08,03,04,10,17.30
2018,08,03,04,11,17.30
2018,08,03,04,12,17.30
2018,08,03,04,13,17.30
2018,08,03,04,14,17.30
2018,08,03,04,15,17.30
2018,08,03,04,16,17.30
2018,08,03,04,17,17.30
2018,08,03,04,18,17.30
2018,08,03,04,19,17.30
2018,08,03,04,20,17.30
2018,08,03,04,21,17.30
2018,08,03,04,22,17.30
2018,08,03,04,23,17.30
2018,08,03,04,24,17.30
2018,08,03,04,25,17.30
2018,08,03,04,26,17.30
2018,08,03,04,27,17.30
2018,08,03,04,28,17.30
2018,08,03,04,29,17.30
2018,08,03,04,30,17.30
2018,08,03,04,31,17.30
2018,08,03,04,32,17.30
2018,08,03,04,33,17.30
2018,08,03,04,34,17.30
2018,08,03,04,35,17.30
2018,08,03,04,36,17.30
2018,08,03,04,37,17.30
2018,08,03,04,38,17.30
2018,08,03,04,39,17.30
2018,08,03,04,40,17.30
2018,08,03,04,41,17.30
2018,08,03,04,42,17.30
2018,08,03,04,43,17.30
2018,08,03,04,44,17.30
2018,08,03,04,45,17.30
2018,08,03,04,46,17.30
2018,08,03,04,47,17.30
2018,08,03,04,48,17.30
2018,08,03,04,49,17.30
2018,08,03,04,50,17.30
2018,08,03,04,51,17.30
2018,08,03,04,52,17.30
2018,08,03,04,53,17.30
2018,08,03,04,54,17.30
2018,08,03,04,55,17.30
2018,08,03,04,56,17.30
2018,08,03,04,57,17.30
2018,08,03,04,58,17.30
2018,08,03,04,59,17.30
2018,08,03,05,00,17.30
2018,08,03,05,01,17.30
2018,08,03,05,02,17.30
2018,08,03,05,03,17.30
2018,08,03,05,04,17.30
2018,08,03,05,05,17.30
2018,08,03,05,06,17.30
2018,08,03,05,07,17.20
2018,08,03,05,08,17.20
2018,08,03,05,09,17.20
2018,08,03,05,10,17.20
2018,08,03,05,11,17.20
2018,08,03,05,12,17.20
2018,08,03,05,13,17.20
2018,08,03,05,14,17.20
2018,08,03,05,15,17.20
2018,08,03,05,16,17.20
2018,08,03,05,17,17.20
2018,08,03,05,18,17.20
2018,08,03,05,19,17.20
2018,08,03,05,20,17.20
2018,08,03,05,21,17.20
2018,08,03,05,22,17.20
2018,08,03,05,23,17.20
2018,08,03,05,24,17.20
2018,08,03,05,25,17.20
2018,08,03,05,26,17.20
2018,08,03,05,27,17.20
2018,08,03,05,28,17.20
2018,08,03,05,29,17.20
2018,08,03,05,30,17.20
2018,08,03,05,31,17.20
2018,08,03,05,32,17.20
2018,08,03,05,33,17.20
2018,08,03,05,34,17.20
2018,08,03,05,35,17.20
2018,08,03,05,36,17.20
2018,08,03,05,37,17.20
2018,08,03,05,38,17.10
2018,08,03,05,39,17.10
2018,08,03,05,40,17.10
2018,08,03,05,41,17.10
2018,08,03,05,42,17.10
2018,08,03,05,43,17.10
2018,08,03,05,44,17.10
2018,08,03,05,45,17.10
2018,08,03,05,46,17.10
2018,08,03,05,47,17.10
2018,08,03,05,48,17.10
2018,08,03,05,49,17.10
2018,08,03,05,50,17.10
2018,08,03,05,51,17.10
2018,08,03,05,52,17.10
2018,08,03,05,53,17.20
2018,08,03,05,54,17.20
2018,08,03,05,55,17.20
2018,08,03,05,56,17.20
2018,08,03,05,57,17.20
2018,08,03,05,58,17.20
2018,08,03,05,59,17.20
2018,08,03,06,00,17.20
2018,08,03,06,01,17.20
2018,08,03,06,02,17.20
2018,08,03,06,03,17.20
2018,08,03,06,04,17.20
2018,08,03,06,05,17.20
2018,08,03,06,06,17.20
2018,08,03,06,07,17.20
2018,08,03,06,08,17.20
2018,08,03,06,09,17.20
2018,08,03,06,10,17.20
2018,08,03,06,11,17.20
2018,08,03,06,12,17.20
2018,08,03,06,13,17.20
2018,08,03,06,14,17.20
2018,08,03,06,15,17.20
2018,08,03,06,16,17.20
2018,08,03,06,17,17.20
2018,08,03,06,18,17.20
2018,08,03,06,19,17.20
2018,08,03,06,20,17.20
2018,08,03,06,21,17.20
2018,08,03,06,22,17.20
2018,08,03,06,23,17.20
2018,08,03,06,24,17.20
2018,08,03,06,25,17.20
2018,08,03,06,26,17.20
2018,08,03,06,27,17.20
2018,08,03,06,28,17.20
2018,08,03,06,29,17.20
2018,08,03,06,30,17.20
2018,08,03,06,31,17.20
2018,08,03,06,32,17.20
2018,08,03,06,33,17.20
2018,08,03,06,34,17.30
2018,08,03,06,35,17.30
2018,08,03,06,36,17.30
2018,08,03,06,37,17.30
2018,08,03,06,38,17.30
2018,08,03,06,39,17.30
2018,08,03,06,40,17.30
2018,08,03,06,41,17.30
2018,08,03,06,42,17.30
2018,08,03,06,43,17.30
2018,08,03,06,44,17.30
2018,08,03,06,45,17.30
2018,08,03,06,46,17.30
2018,08,03,06,47,17.30
2018,08,03,06,48,17.30
2018,08,03,06,49,17.30
2018,08,03,06,50,17.30
2018,08,03,06,51,17.30
2018,08,03,06,52,17.30
2018,08,03,06,53,17.30
2018,08,03,06,54,17.30
2018,08,03,06,55,17.30
2018,08,03,06,56,17.30
2018,08,03,06,57,17.30
2018,08,03,06,58,17.30
2018,08,03,06,59,17.30
2018,08,03,07,00,17.30
2018,08,03,07,01,17.30
2018,08,03,07,02,17.40
2018,08,03,07,03,17.40
2018,08,03,07,04,17.40
2018,08,03,07,05,17.40
2018,08,03,07,06,17.40
2018,08,03,07,07,17.40
2018,08,03,07,08,17.40
2018,08,03,07,09,17.40
2018,08,03,07,10,17.40
2018,08,03,07,11,17.40
2018,08,03,07,12,17.40
2018,08,03,07,13,17.40
2018,08,03,07,14,17.40
2018,08,03,07,15,17.40
2018,08,03,07,16,17.40
2018,08,03,07,17,17.40
2018,08,03,07,18,17.50
2018,08,03,07,19,17.50
2018,08,03,07,20,17.50
2018,08,03,07,21,17.50
2018,08,03,07,22,17.50
2018,08,03,07,23,17.50
2018,08,03,07,24,17.60
2018,08,03,07,25,17.60
2018,08,03,07,26,17.60
2018,08,03,07,27,17.60
2018,08,03,07,28,17.60
2018,08,03,07,29,17.60
2018,08,03,07,30,17.60
2018,08,03,07,31,17.60
2018,08,03,07,32,17.60
2018,08,03,07,33,17.60
2018,08,03,07,34,17.60
2018,08,03,07,35,17.70
2018,08,03,07,36,17.70
2018,08,03,07,37,17.70
2018,08,03,07,38,17.70
2018,08,03,07,39,17.70
2018,08,03,07,40,17.70
2018,08,03,07,41,17.70
2018,08,03,07,42,17.70
2018,08,03,07,43,17.70
2018,08,03,07,44,17.70
2018,08,03,07,45,17.70
2018,08,03,07,46,17.70
2018,08,03,07,47,17.70
2018,08,03,07,48,17.70
2018,08,03,07,49,17.70
2018,08,03,07,50,17.70
2018,08,03,07,51,17.70
2018,08,03,07,52,17.70
2018,08,03,07,53,17.70
2018,08,03,07,54,17.70
2018,08,03,07,55,17.70
2018,08,03,07,56,17.70
2018,08,03,07,57,17.70
2018,08,03,07,58,17.70
2018,08,03,07,59,17.70
2018,08,03,08,00,17.70
2018,08,03,08,01,17.70
2018,08,03,08,02,17.70
2018,08,03,08,03,17.70
2018,08,03,08,04,17.70
2018,08,03,08,05,17.70
2018,08,03,08,06,17.70
2018,08,03,08,07,17.70
2018,08,03,08,08,17.80
2018,08,03,08,09,17.80
2018,08,03,08,10,17.80
2018,08,03,08,11,17.80
2018,08,03,08,12,17.80
2018,08,03,08,13,17.80
2018,08,03,08,14,17.80
2018,08,03,08,15,17.80
2018,08,03,08,16,17.80
2018,08,03,08,17,17.80
2018,08,03,08,18,17.80
2018,08,03,08,19,17.80
2018,08,03,08,20,17.80
2018,08,03,08,21,17.80
2018,08,03,08,22,17.80
2018,08,03,08,23,17.80
2018,08,03,08,24,17.80
2018,08,03,08,25,17.80
2018,08,03,08,26,17.80
2018,08,03,08,27,17.90
2018,08,03,08,28,17.90
2018,08,03,08,29,17.90
2018,08,03,08,30,17.90
2018,08,03,08,31,17.90
2018,08,03,08,32,18.00
2018,08,03,08,33,18.00
2018,08,03,08,34,18.00
2018,08,03,08,35,18.10
2018,08,03,08,36,18.10
2018,08,03,08,37,18.10
2018,08,03,08,38,18.20
2018,08,03,08,39,18.20
2018,08,03,08,40,18.20
2018,08,03,08,41,18.20
2018,08,03,08,42,18.20
2018,08,03,08,43,18.20
2018,08,03,08,44,18.20
2018,08,03,08,45,18.20
2018,08,03,08,46,18.20
2018,08,03,08,47,18.20
2018,08,03,08,48,18.20
2018,08,03,08,49,18.20
2018,08,03,08,50,18.20
2018,08,03,08,51,18.20
2018,08,03,08,52,18.20
2018,08,03,08,53,18.20
2018,08,03,08,54,18.20
2018,08,03,08,55,18.20
2018,08,03,08,56,18.20
2018,08,03,08,57,18.20
2018,08,03,08,58,18.20
2018,08,03,08,59,18.10
2018,08,03,09,00,18.10
2018,08,03,09,01,18.10
2018,08,03,09,02,18.20
2018,08,03,09,03,18.20
2018,08,03,09,04,18.20
2018,08,03,09,05,18.20
2018,08,03,09,06,18.20
2018,08,03,09,07,18.20
2018,08,03,09,08,18.10
2018,08,03,09,09,18.10
2018,08,03,09,10,18.10
2018,08,03,09,11,18.00
2018,08,03,09,12,18.00
2018,08,03,09,13,18.00
2018,08,03,09,14,18.00
2018,08,03,09,15,17.90
2018,08,03,09,16,17.90
2018,08,03,09,17,17.90
2018,08,03,09,18,17.90
2018,08,03,09,19,17.90
2018,08,03,09,20,17.90
2018,08,03,09,21,17.90
2018,08,03,09,22,17.90
2018,08,03,09,23,17.80
2018,08,03,09,24,17.80
2018,08,03,09,25,17.80
2018,08,03,09,26,17.80
2018,08,03,09,27,17.80
2018,08,03,09,28,17.80
2018,08,03,09,29,17.80
2018,08,03,09,30,17.90
2018,08,03,09,31,17.90
2018,08,03,09,32,17.90
2018,08,03,09,33,17.90
2018,08,03,09,34,17.90
2018,08,03,09,35,17.90
2018,08,03,09,36,17.90
2018,08,03,09,37,17.90
2018,08,03,09,38,17.90
2018,08,03,09,39,17.90
2018,08,03,09,40,18.00
2018,08,03,09,41,17.90
2018,08,03,09,42,18.00
2018,08,03,09,43,18.00
2018,08,03,09,44,18.00
2018,08,03,09,45,18.00
2018,08,03,09,46,18.00
2018,08,03,09,47,18.00
2018,08,03,09,48,18.10
2018,08,03,09,49,18.10
2018,08,03,09,50,18.10
2018,08,03,09,51,18.10
2018,08,03,09,52,18.10
2018,08,03,09,53,18.10
2018,08,03,09,54,18.10
2018,08,03,09,55,18.10
2018,08,03,09,56,18.10
2018,08,03,09,57,18.10
2018,08,03,09,58,18.10
2018,08,03,09,59,18.10
2018,08,03,10,00,18.10
2018,08,03,10,01,18.10
2018,08,03,10,02,18.20
2018,08,03,10,03,18.20
2018,08,03,10,04,18.20
2018,08,03,10,05,18.20
2018,08,03,10,06,18.20
2018,08,03,10,07,18.20
2018,08,03,10,08,18.20
2018,08,03,10,09,18.10
2018,08,03,10,10,18.10
2018,08,03,10,11,18.10
2018,08,03,10,12,18.10
2018,08,03,10,13,18.10
2018,08,03,10,14,18.10
2018,08,03,10,15,18.10
2018,08,03,10,16,18.10
2018,08,03,10,17,18.20
2018,08,03,10,18,18.20
2018,08,03,10,19,18.20
2018,08,03,10,20,18.20
2018,08,03,10,21,18.30
2018,08,03,10,22,18.30
2018,08,03,10,23,18.40
2018,08,03,10,24,18.40
2018,08,03,10,25,18.40
2018,08,03,10,26,18.40
2018,08,03,10,27,18.40
2018,08,03,10,28,18.40
2018,08,03,10,29,18.40
2018,08,03,10,30,18.40
2018,08,03,10,31,18.30
2018,08,03,10,32,18.30
2018,08,03,10,33,18.40
2018,08,03,10,34,18.40
2018,08,03,10,35,18.40
2018,08,03,10,36,18.40
2018,08,03,10,37,18.40
2018,08,03,10,38,18.40
2018,08,03,10,39,18.40
2018,08,03,10,40,18.30
2018,08,03,10,41,18.30
2018,08,03,10,42,18.30
2018,08,03,10,43,18.20
2018,08,03,10,44,18.20
2018,08,03,10,45,18.20
2018,08,03,10,46,18.30
2018,08,03,10,47,18.30
2018,08,03,10,48,18.30
2018,08,03,10,49,18.30
2018,08,03,10,50,18.30
2018,08,03,10,51,18.30
2018,08,03,10,52,18.30
2018,08,03,10,53,18.30
2018,08,03,10,54,18.30
2018,08,03,10,55,18.30
2018,08,03,10,56,18.30
2018,08,03,10,57,18.30
2018,08,03,10,58,18.40
2018,08,03,10,59,18.40
2018,08,03,11,00,18.40
2018,08,03,11,01,18.40
2018,08,03,11,02,18.40
2018,08,03,11,03,18.40
2018,08,03,11,04,18.40
2018,08,03,11,05,18.40
2018,08,03,11,06,18.40
2018,08,03,11,07,18.40
2018,08,03,11,08,18.40
2018,08,03,11,09,18.40
2018,08,03,11,10,18.50
2018,08,03,11,11,18.40
2018,08,03,11,12,18.40
2018,08,03,11,13,18.40
2018,08,03,11,14,18.40
2018,08,03,11,15,18.30
2018,08,03,11,16,18.30
2018,08,03,11,17,18.30
2018,08,03,11,18,18.30
2018,08,03,11,19,18.30
2018,08,03,11,20,18.30
2018,08,03,11,21,18.30
2018,08,03,11,22,18.30
2018,08,03,11,23,18.30
2018,08,03,11,24,18.30
2018,08,03,11,25,18.40
2018,08,03,11,26,18.40
2018,08,03,11,27,18.40
2018,08,03,11,28,18.40
2018,08,03,11,29,18.40
2018,08,03,11,30,18.40
2018,08,03,11,31,18.40
2018,08,03,11,32,18.40
2018,08,03,11,33,18.40
2018,08,03,11,34,18.50
2018,08,03,11,35,18.50
2018,08,03,11,36,18.60
2018,08,03,11,37,18.60
2018,08,03,11,38,18.60
2018,08,03,11,39,18.70
2018,08,03,11,40,18.70
2018,08,03,11,41,18.80
2018,08,03,11,42,18.80
2018,08,03,11,43,18.80
2018,08,03,11,44,18.70
2018,08,03,11,45,18.60
2018,08,03,11,46,18.60
2018,08,03,11,47,18.60
2018,08,03,11,48,18.50
2018,08,03,11,49,18.50
2018,08,03,11,50,18.60
2018,08,03,11,51,18.60
2018,08,03,11,52,18.70
2018,08,03,11,53,18.70
2018,08,03,11,54,18.70
2018,08,03,11,55,18.70
2018,08,03,11,56,18.70
2018,08,03,11,57,18.60
2018,08,03,11,58,18.60
2018,08,03,11,59,18.60
2018,08,03,12,00,18.60
2018,08,03,12,01,18.60
2018,08,03,12,02,18.60
2018,08,03,12,03,18.60
2018,08,03,12,04,18.70
2018,08,03,12,05,18.70
2018,08,03,12,06,18.70
2018,08,03,12,07,18.80
2018,08,03,12,08,18.80
2018,08,03,12,09,18.80
2018,08,03,12,10,18.80
2018,08,03,12,11,18.90
2018,08,03,12,12,19.00
2018,08,03,12,13,19.10
2018,08,03,12,14,19.20
2018,08,03,12,15,19.20
2018,08,03,12,16,19.20
2018,08,03,12,17,19.30
2018,08,03,12,18,19.20
2018,08,03,12,19,19.20
2018,08,03,12,20,19.20
2018,08,03,12,21,19.20
2018,08,03,12,22,19.20
2018,08,03,12,23,19.20
2018,08,03,12,24,19.10
2018,08,03,12,25,19.10
2018,08,03,12,26,19.10
2018,08,03,12,27,19.20
2018,08,03,12,28,19.20
2018,08,03,12,29,19.10
2018,08,03,12,30,19.10
2018,08,03,12,31,19.00
2018,08,03,12,32,19.00
2018,08,03,12,33,19.00
2018,08,03,12,34,19.00
2018,08,03,12,35,19.00
2018,08,03,12,36,19.00
2018,08,03,12,37,18.90
2018,08,03,12,38,19.00
2018,08,03,12,39,19.00
2018,08,03,12,40,19.10
2018,08,03,12,41,19.00
2018,08,03,12,42,18.90
2018,08,03,12,43,19.00
2018,08,03,12,44,19.00
2018,08,03,12,45,19.10
2018,08,03,12,46,19.10
2018,08,03,12,47,19.10
2018,08,03,12,48,19.10
2018,08,03,12,49,19.00
2018,08,03,12,50,18.90
2018,08,03,12,51,18.90
2018,08,03,12,52,18.90
2018,08,03,12,53,18.80
2018,08,03,12,54,18.70
2018,08,03,12,55,18.70
2018,08,03,12,56,18.80
2018,08,03,12,57,18.80
2018,08,03,12,58,18.80
2018,08,03,12,59,18.90
2018,08,03,13,00,18.90
2018,08,03,13,01,18.90
2018,08,03,13,02,18.90
2018,08,03,13,03,18.80
2018,08,03,13,04,18.80
2018,08,03,13,05,18.70
2018,08,03,13,06,18.60
2018,08,03,13,07,18.60
2018,08,03,13,08,18.60
2018,08,03,13,09,18.50
2018,08,03,13,10,18.50
2018,08,03,13,11,18.40
2018,08,03,13,12,18.40
2018,08,03,13,13,18.40
2018,08,03,13,14,18.40
2018,08,03,13,15,18.40
2018,08,03,13,16,18.30
2018,08,03,13,17,18.20
2018,08,03,13,18,18.10
2018,08,03,13,19,18.00
2018,08,03,13,20,18.10
2018,08,03,13,21,18.10
2018,08,03,13,22,18.20
2018,08,03,13,23,18.20
2018,08,03,13,24,18.30
2018,08,03,13,25,18.30
2018,08,03,13,26,18.30
2018,08,03,13,27,18.30
2018,08,03,13,28,18.40
2018,08,03,13,29,18.40
2018,08,03,13,30,18.40
2018,08,03,13,31,18.40
2018,08,03,13,32,18.40
2018,08,03,13,33,18.30
2018,08,03,13,34,18.40
2018,08,03,13,35,18.40
2018,08,03,13,36,18.50
2018,08,03,13,37,18.40
2018,08,03,13,38,18.40
2018,08,03,13,39,18.40
2018,08,03,13,40,18.30
2018,08,03,13,41,18.30
2018,08,03,13,42,18.30
2018,08,03,13,43,18.40
2018,08,03,13,44,18.40
2018,08,03,13,45,18.50
2018,08,03,13,46,18.50
2018,08,03,13,47,18.60
2018,08,03,13,48,18.60
2018,08,03,13,49,18.70
2018,08,03,13,50,18.70
2018,08,03,13,51,18.70
2018,08,03,13,52,18.70
2018,08,03,13,53,18.70
2018,08,03,13,54,18.70
2018,08,03,13,55,18.70
2018,08,03,13,56,18.70
2018,08,03,13,57,18.70
2018,08,03,13,58,18.80
2018,08,03,13,59,18.90
2018,08,03,14,00,18.90
2018,08,03,14,01,18.90
2018,08,03,14,02,18.90
2018,08,03,14,03,18.70
2018,08,03,14,04,18.70
2018,08,03,14,05,18.60
2018,08,03,14,06,18.60
2018,08,03,14,07,18.60
2018,08,03,14,08,18.60
2018,08,03,14,09,18.60
2018,08,03,14,10,18.60
2018,08,03,14,11,18.70
2018,08,03,14,12,18.80
2018,08,03,14,13,18.90
2018,08,03,14,14,18.90
2018,08,03,14,15,18.90
2018,08,03,14,16,19.00
2018,08,03,14,17,19.00
2018,08,03,14,18,19.00
2018,08,03,14,19,18.90
2018,08,03,14,20,18.90
2018,08,03,14,21,18.90
2018,08,03,14,22,18.90
2018,08,03,14,23,18.80
2018,08,03,14,24,18.80
2018,08,03,14,25,18.90
2018,08,03,14,26,18.90
2018,08,03,14,27,18.90
2018,08,03,14,28,18.80
2018,08,03,14,29,18.80
2018,08,03,14,30,18.80
2018,08,03,14,31,18.80
2018,08,03,14,32,18.80
2018,08,03,14,33,18.80
2018,08,03,14,34,18.90
2018,08,03,14,35,18.90
2018,08,03,14,36,19.00
2018,08,03,14,37,19.10
2018,08,03,14,38,19.20
2018,08,03,14,39,19.20
2018,08,03,14,40,19.20
2018,08,03,14,41,19.20
2018,08,03,14,42,19.20
2018,08,03,14,43,19.20
2018,08,03,14,44,19.20
2018,08,03,14,45,19.20
2018,08,03,14,46,19.30
2018,08,03,14,47,19.40
2018,08,03,14,48,19.40
2018,08,03,14,49,19.30
2018,08,03,14,50,19.40
2018,08,03,14,51,19.30
2018,08,03,14,52,19.30
2018,08,03,14,53,19.30
2018,08,03,14,54,19.30
2018,08,03,14,55,19.30
2018,08,03,14,56,19.40
2018,08,03,14,57,19.40
2018,08,03,14,58,19.40
2018,08,03,14,59,19.40
2018,08,03,15,00,19.40
2018,08,03,15,01,19.30
2018,08,03,15,02,19.40
2018,08,03,15,03,19.40
2018,08,03,15,04,19.40
2018,08,03,15,05,19.30
2018,08,03,15,06,19.30
2018,08,03,15,07,19.20
2018,08,03,15,08,19.20
2018,08,03,15,09,19.30
2018,08,03,15,10,19.30
2018,08,03,15,11,19.30
2018,08,03,15,12,19.40
2018,08,03,15,13,19.40
2018,08,03,15,14,19.40
2018,08,03,15,15,19.50
2018,08,03,15,16,19.60
2018,08,03,15,17,19.60
2018,08,03,15,18,19.70
2018,08,03,15,19,19.70
2018,08,03,15,20,19.70
2018,08,03,15,21,19.70
2018,08,03,15,22,19.70
2018,08,03,15,23,19.70
2018,08,03,15,24,19.70
2018,08,03,15,25,19.80
2018,08,03,15,26,19.80
2018,08,03,15,27,19.80
2018,08,03,15,28,19.70
2018,08,03,15,29,19.70
2018,08,03,15,30,19.60
2018,08,03,15,31,19.70
2018,08,03,15,32,19.80
2018,08,03,15,33,19.80
2018,08,03,15,34,19.80
2018,08,03,15,35,19.80
2018,08,03,15,36,19.90
2018,08,03,15,37,19.90
2018,08,03,15,38,19.90
2018,08,03,15,39,19.90
2018,08,03,15,40,19.90
2018,08,03,15,41,20.00
2018,08,03,15,42,20.00
2018,08,03,15,43,20.10
2018,08,03,15,44,20.20
2018,08,03,15,45,20.20
2018,08,03,15,46,20.10
2018,08,03,15,47,20.10
2018,08,03,15,48,20.10
2018,08,03,15,49,20.10
2018,08,03,15,50,20.10
2018,08,03,15,51,20.10
2018,08,03,15,52,20.10
2018,08,03,15,53,20.20
2018,08,03,15,54,20.20
2018,08,03,15,55,20.20
2018,08,03,15,56,20.10
2018,08,03,15,57,20.10
2018,08,03,15,58,20.10
2018,08,03,15,59,20.10
2018,08,03,16,00,20.10
2018,08,03,16,01,20.10
2018,08,03,16,02,20.10
2018,08,03,16,03,20.10
2018,08,03,16,04,20.10
2018,08,03,16,05,20.00
2018,08,03,16,06,20.10
2018,08,03,16,07,20.10
2018,08,03,16,08,20.10
2018,08,03,16,09,20.20
2018,08,03,16,10,20.20
2018,08,03,16,11,20.10
2018,08,03,16,12,20.10
2018,08,03,16,13,20.10
2018,08,03,16,14,20.20
2018,08,03,16,15,20.20
2018,08,03,16,16,20.20
2018,08,03,16,17,20.20
2018,08,03,16,18,20.30
2018,08,03,16,19,20.30
2018,08,03,16,20,20.30
2018,08,03,16,21,20.20
2018,08,03,16,22,20.20
2018,08,03,16,23,20.30
2018,08,03,16,24,20.30
2018,08,03,16,25,20.30
2018,08,03,16,26,20.30
2018,08,03,16,27,20.30
2018,08,03,16,28,20.40
2018,08,03,16,29,20.40
2018,08,03,16,30,20.40
2018,08,03,16,31,20.30
2018,08,03,16,32,20.30
2018,08,03,16,33,20.30
2018,08,03,16,34,20.30
2018,08,03,16,35,20.20
2018,08,03,16,36,20.20
2018,08,03,16,37,20.20
2018,08,03,16,38,20.20
2018,08,03,16,39,20.20
2018,08,03,16,40,20.30
2018,08,03,16,41,20.30
2018,08,03,16,42,20.30
2018,08,03,16,43,20.30
2018,08,03,16,44,20.30
2018,08,03,16,45,20.30
2018,08,03,16,46,20.30
2018,08,03,16,47,20.30
2018,08,03,16,48,20.20
2018,08,03,16,49,20.20
2018,08,03,16,50,20.30
2018,08,03,16,51,20.40
2018,08,03,16,52,20.30
2018,08,03,16,53,20.40
2018,08,03,16,54,20.30
2018,08,03,16,55,20.40
2018,08,03,16,56,20.30
2018,08,03,16,57,20.30
2018,08,03,16,58,20.40
2018,08,03,16,59,20.40
2018,08,03,17,00,20.40
2018,08,03,17,01,20.30
2018,08,03,17,02,20.30
2018,08,03,17,03,20.30
2018,08,03,17,04,20.30
2018,08,03,17,05,20.30
2018,08,03,17,06,20.30
2018,08,03,17,07,20.30
2018,08,03,17,08,20.30
2018,08,03,17,09,20.30
2018,08,03,17,10,20.30
2018,08,03,17,11,20.30
2018,08,03,17,12,20.30
2018,08,03,17,13,20.30
2018,08,03,17,14,20.30
2018,08,03,17,15,20.30
2018,08,03,17,16,20.30
2018,08,03,17,17,20.30
2018,08,03,17,18,20.20
2018,08,03,17,19,20.30